Meteo orario Golden Gate

Oggi, 15 Aprile, Giovedi

Tempo Temperatura Precipitazioni Vento Pressione Umidità
00:00 +23°C° 0 mm 2 m/s 762 mm Hg 73%
01:00 +21°C° 0 mm 3 m/s 762 mm Hg 74%
02:00 +21°C° 0 mm 3 m/s 762 mm Hg 77%
03:00 +20°C° 0 mm 3 m/s 761 mm Hg 81%
04:00 +20°C° 0 mm 3 m/s 761 mm Hg 84%
05:00 +20°C° 0 mm 3 m/s 761 mm Hg 83%
06:00 +21°C° 0 mm 3 m/s 761 mm Hg 82%
07:00 +21°C° 0 mm 3 m/s 761 mm Hg 81%
08:00 +23°C° 0 mm 4 m/s 761 mm Hg 69%
09:00 +27°C° 0 mm 4 m/s 761 mm Hg 58%
10:00 +29°C° 0 mm 5 m/s 761 mm Hg 47%
11:00 +30°C° 0 mm 5 m/s 760 mm Hg 45%
12:00 +32°C° 0 mm 5 m/s 760 mm Hg 42%
13:00 +33°C° 0 mm 6 m/s 760 mm Hg 40%
14:00 +32°C° 0 mm 5 m/s 760 mm Hg 42%
15:00 +30°C° 0 mm 5 m/s 759 mm Hg 45%
16:00 +30°C° 0 mm 5 m/s 759 mm Hg 47%
17:00 +28°C° 0 mm 4 m/s 759 mm Hg 55%
18:00 +27°C° 0 mm 4 m/s 760 mm Hg 63%
19:00 +25°C° 0 mm 3 m/s 760 mm Hg 70%
20:00 +25°C° 0 mm 3 m/s 760 mm Hg 74%
21:00 +24°C° 0 mm 3 m/s 759 mm Hg 79%
22:00 +24°C° 0 mm 3 m/s 759 mm Hg 83%
23:00 +24°C° 0 mm 3 m/s 759 mm Hg 84%

Domani, 16 Aprile, Venerdi

Tempo Temperatura Precipitazioni Vento Pressione Umidità
00:00 +22°C° 0 mm 3 m/s 759 mm Hg 85%
01:00 +23°C° 0 mm 2 m/s 759 mm Hg 86%
02:00 +23°C° 0 mm 2 m/s 759 mm Hg 86%
03:00 +23°C° 0 mm 2 m/s 758 mm Hg 87%
04:00 +23°C° 0 mm 2 m/s 758 mm Hg 88%
05:00 +23°C° 0 mm 2 m/s 758 mm Hg 85%
06:00 +24°C° 0 mm 2 m/s 758 mm Hg 83%
07:00 +24°C° 0 mm 2 m/s 759 mm Hg 81%
08:00 +26°C° 0 mm 3 m/s 759 mm Hg 71%
09:00 +28°C° 0 mm 3 m/s 759 mm Hg 61%
10:00 +30°C° 0 mm 4 m/s 759 mm Hg 52%
11:00 +30°C° 0 mm 4 m/s 759 mm Hg 49%
12:00 +32°C° 0 mm 4 m/s 759 mm Hg 46%
13:00 +32°C° 0 mm 5 m/s 758 mm Hg 44%
14:00 +32°C° 0 mm 4 m/s 758 mm Hg 45%
15:00 +32°C° 0 mm 4 m/s 758 mm Hg 46%
16:00 +30°C° 0 mm 4 m/s 757 mm Hg 48%
17:00 +29°C° 0 mm 4 m/s 758 mm Hg 55%
18:00 +27°C° 0 mm 3 m/s 758 mm Hg 62%
19:00 +26°C° 0 mm 3 m/s 758 mm Hg 70%
20:00 +25°C° 0 mm 2 m/s 759 mm Hg 74%
21:00 +24°C° 0 mm 2 m/s 759 mm Hg 79%
22:00 +24°C° 0 mm 1 m/s 759 mm Hg 84%
23:00 +23°C° 0 mm 1 m/s 759 mm Hg 85%

Dopodomani, 17 Aprile, Sabato

Tempo Temperatura Precipitazioni Vento Pressione Umidità
00:00 +21°C° 0 mm 0 m/s 759 mm Hg 86%
01:00 +21°C° 0 mm 0 m/s 759 mm Hg 88%
02:00 +23°C° 0 mm 1 m/s 759 mm Hg 87%
03:00 +23°C° 0 mm 1 m/s 759 mm Hg 87%
04:00 +22°C° 0 mm 1 m/s 758 mm Hg 86%
05:00 +23°C° 0 mm 2 m/s 759 mm Hg 83%
06:00 +24°C° 0 mm 2 m/s 759 mm Hg 81%
07:00 +24°C° 0 mm 2 m/s 759 mm Hg 78%
08:00 +26°C° 0 mm 3 m/s 759 mm Hg 68%
09:00 +29°C° 0 mm 3 m/s 759 mm Hg 58%
10:00 +32°C° 0 mm 4 m/s 760 mm Hg 48%
11:00 +33°C° 0 mm 5 m/s 759 mm Hg 46%
12:00 +33°C° 0 mm 5 m/s 759 mm Hg 44%
13:00 +34°C° 0 mm 6 m/s 759 mm Hg 42%
14:00 +33°C° 0 mm 6 m/s 759 mm Hg 43%
15:00 +33°C° 0 mm 5 m/s 759 mm Hg 44%
16:00 +32°C° 0 mm 5 m/s 759 mm Hg 45%
17:00 +29°C° 0 mm 4 m/s 759 mm Hg 55%
18:00 +27°C° 0 mm 3 m/s 759 mm Hg 64%
19:00 +26°C° 0 mm 2 m/s 759 mm Hg 74%
20:00 +25°C° 0 mm 2 m/s 759 mm Hg 78%
21:00 +24°C° 0 mm 2 m/s 760 mm Hg 82%
22:00 +24°C° 0 mm 2 m/s 760 mm Hg 86%
23:00 +24°C° 0 mm 2 m/s 760 mm Hg 87%

18 Aprile, Domenica

Tempo Temperatura Precipitazioni Vento Pressione Umidità
00:00 +24°C° 0 mm 2 m/s 760 mm Hg 87%
01:00 +24°C° 0 mm 2 m/s 760 mm Hg 87%
02:00 +24°C° 0 mm 2 m/s 759 mm Hg 88%
03:00 +24°C° 0 mm 2 m/s 759 mm Hg 88%
04:00 +24°C° 0 mm 2 m/s 759 mm Hg 89%
05:00 +24°C° 0 mm 2 m/s 760 mm Hg 87%
06:00 +25°C° 0 mm 1 m/s 760 mm Hg 85%
07:00 +25°C° 0 mm 1 m/s 760 mm Hg 83%
08:00 +27°C° 0 mm 2 m/s 760 mm Hg 73%
09:00 +29°C° 0 mm 3 m/s 761 mm Hg 64%
10:00 +32°C° 0 mm 4 m/s 761 mm Hg 54%
11:00 +32°C° 0 mm 4 m/s 760 mm Hg 52%
12:00 +33°C° 0 mm 4 m/s 760 mm Hg 50%
13:00 +33°C° 0 mm 5 m/s 760 mm Hg 49%
14:00 +33°C° 0 mm 5 m/s 760 mm Hg 51%
15:00 +32°C° 0 mm 5 m/s 759 mm Hg 53%
16:00 +32°C° 0 mm 4 m/s 759 mm Hg 55%
17:00 +30°C° 0 mm 4 m/s 759 mm Hg 62%
18:00 +28°C° 0 mm 3 m/s 759 mm Hg 69%
19:00 +27°C° 0 mm 2 m/s 760 mm Hg 76%
20:00 +27°C° 0 mm 2 m/s 760 mm Hg 79%
21:00 +26°C° 0 mm 1 m/s 760 mm Hg 82%
22:00 +26°C° 0 mm 1 m/s 760 mm Hg 84%
23:00 +25°C° 0.1 mm 1 m/s 760 mm Hg 85%

19 Aprile, Lunedi

Tempo Temperatura Precipitazioni Vento Pressione Umidità
00:00 +25°C° 0.1 mm 2 m/s 760 mm Hg 86%
01:00 +25°C° 0.1 mm 2 m/s 760 mm Hg 87%
02:00 +25°C° 0.4 mm 2 m/s 760 mm Hg 87%
03:00 +24°C° 0.4 mm 2 m/s 760 mm Hg 88%
04:00 +24°C° 0.4 mm 1 m/s 759 mm Hg 88%
05:00 +24°C° 0.4 mm 2 m/s 760 mm Hg 88%
06:00 +24°C° 0.4 mm 2 m/s 760 mm Hg 88%
07:00 +25°C° 0.4 mm 3 m/s 760 mm Hg 88%
08:00 +26°C° 0.3 mm 3 m/s 761 mm Hg 80%
09:00 +28°C° 0.3 mm 3 m/s 761 mm Hg 72%
10:00 +30°C° 0.3 mm 4 m/s 761 mm Hg 63%
11:00 +30°C° 0 mm 4 m/s 760 mm Hg 60%
12:00 +32°C° 0 mm 4 m/s 760 mm Hg 57%
13:00 +33°C° 0 mm 5 m/s 760 mm Hg 54%
14:00 +32°C° 0.1 mm 4 m/s 760 mm Hg 56%
15:00 +32°C° 0.1 mm 4 m/s 759 mm Hg 58%
16:00 +30°C° 0.1 mm 4 m/s 759 mm Hg 61%
17:00 +30°C° 0 mm 3 m/s 759 mm Hg 64%
18:00 +29°C° 0 mm 2 m/s 759 mm Hg 66%
19:00 +28°C° 0 mm 1 m/s 760 mm Hg 69%
20:00 +27°C° 0 mm 1 m/s 760 mm Hg 71%
21:00 +27°C° 0 mm 2 m/s 760 mm Hg 73%
22:00 +26°C° 0 mm 2 m/s 760 mm Hg 76%
23:00 +26°C° 0.2 mm 2 m/s 760 mm Hg 79%

20 Aprile, Martedi

Tempo Temperatura Precipitazioni Vento Pressione Umidità
00:00 +25°C° 0.2 mm 2 m/s 760 mm Hg 82%
01:00 +25°C° 0.2 mm 2 m/s 760 mm Hg 85%
02:00 +25°C° 0.1 mm 2 m/s 760 mm Hg 85%
03:00 +24°C° 0.1 mm 2 m/s 760 mm Hg 86%
04:00 +24°C° 0.1 mm 3 m/s 759 mm Hg 86%
05:00 +25°C° 0.3 mm 3 m/s 759 mm Hg 86%
06:00 +25°C° 0.3 mm 3 m/s 760 mm Hg 85%
07:00 +26°C° 0.3 mm 4 m/s 760 mm Hg 84%
08:00 +28°C° 0 mm 4 m/s 760 mm Hg 77%
09:00 +29°C° 0 mm 5 m/s 760 mm Hg 69%
10:00 +32°C° 0 mm 6 m/s 761 mm Hg 61%
11:00 +32°C° 0 mm 6 m/s 761 mm Hg 58%
12:00 +33°C° 0 mm 6 m/s 760 mm Hg 56%
13:00 +33°C° 0 mm 7 m/s 760 mm Hg 53%
14:00 +33°C° 0 mm 7 m/s 760 mm Hg 57%
15:00 +32°C° 0 mm 6 m/s 760 mm Hg 60%
16:00 +30°C° 0 mm 6 m/s 759 mm Hg 64%
17:00 +29°C° 0 mm 5 m/s 759 mm Hg 68%
18:00 +29°C° 0 mm 4 m/s 760 mm Hg 73%
19:00 +28°C° 0 mm 4 m/s 760 mm Hg 77%
20:00 +27°C° 0.1 mm 3 m/s 760 mm Hg 79%
21:00 +27°C° 0.1 mm 3 m/s 760 mm Hg 81%
22:00 +27°C° 0.1 mm 3 m/s 760 mm Hg 82%
23:00 +27°C° 0.1 mm 3 m/s 760 mm Hg 83%
Mostrare altro

Abbiamo bisogno del tuo consenso

Meteoprog e i nostri fornitori di servizi possono memorizzare e accedere a dati personali come cookie, identificatori di dispositivi o altre tecnologie simili sul tuo dispositivo e possono elaborare tali dati per personalizzare i contenuti e gli annunci, nonché fornire funzionalità dei social media e analizzarne il traffico.

  • Archiviare e/o accedere alle informazioni sul tuo dispositivo

    Cookie, identificatori di dispositivi o altre informazioni possono essere memorizzati o resi accessibili sul tuo dispositivo per le finalità sopra indicate.

  • Annunci e contenuti personalizzati, misurazione di annunci e contenuti, approfondimenti sul pubblico e sviluppo di prodotti

    Gli annunci e i contenuti possono essere personalizzati in base a un profilo. È possibile aggiungere più dati per personalizzare meglio annunci e contenuti. È possibile misurare il rendimento degli annunci e dei contenuti. È possibile ricavare informazioni sul pubblico che ha visto gli annunci e i contenuti. Tali dati possono essere utilizzati per sviluppare o migliorare l'esperienza, i sistemi e il software dell'utente.

Cliccando su “Accetto”, acconsenti all'uso di cookie, identificatori di dispositivo, web beacon o altre tecnologie simili. Puoi modificare le impostazioni nel browser del tuo dispositivo.

Per determinati scopi, è possibile fare affidamento su interessi legali, piuttosto che sul consenso. Puoi approfondire questo argomento consultando la nostra Informativa sulla privacy e sui cookie.